[[{"header":{"parameterUnit":"m.s-1","parameterCategory":1,"la1":30.2992,"la2":30.254,"lo1":-89.0895,"lo2":-89.0443,"dy":0.0025,"dx":0.0025,"nx":19,"ny":19,"refTime":"2026-04-25T03:00:00:Z","depth":0,"parameterNumber":2,"parameterNumberName":"U-component_of_WINDS"},"data":[0,0,0,3.3523,3.3523,3.3485,3.3484,3.3463,3.3463,0,0,0,0,0,0,0,0,0,0,0,3.3551,3.3552,3.3523,3.3523,3.3485,3.3484,3.3463,3.3463,0,0,0,0,0,0,0,0,0,0,0,3.3551,3.3551,3.3552,3.3523,3.3485,3.3484,3.3463,3.3482,0,0,0,0,0,0,0,0,0,0,3.3514,3.3556,3.3551,3.3552,3.3523,3.3485,3.3484,3.3482,3.3481,3.3492,0,3.3507,0,3.3485,3.3463,3.3463,0,0,0,3.351,3.3558,3.3533,3.3552,3.3522,3.3485,3.3498,3.3481,3.3479,3.349,3.3506,3.3504,3.3484,3.3463,3.3463,3.3571,3.3572,0,0,3.3513,3.3553,3.3534,3.3532,3.354,3.35,3.3497,3.348,3.35,3.3506,3.3503,3.3484,3.3463,3.3464,3.357,3.3571,0,0,0,3.3527,3.3555,3.353,3.3534,3.3525,3.3499,3.3496,3.35,3.3489,3.3503,3.3484,3.3464,3.3464,3.3569,3.357,3.3665,0,0,0,3.3528,3.3563,3.3531,3.3556,3.3526,3.3512,3.3518,3.349,3.3487,3.3484,3.3464,3.3464,3.3567,3.357,3.3659,3.3702,0,0,0,3.3548,3.3566,3.3566,3.3558,3.3543,3.3511,3.3498,3.3488,3.3476,3.3463,3.3464,3.3567,3.3569,3.3655,3.3694,3.3743,0,0,0,3.3581,3.3649,3.3568,3.3636,3.3544,3.357,3.3498,3.3515,3.3516,3.3464,3.3568,3.357,3.3653,3.3689,3.3739,3.3792,3.3818,0,0,3.369,3.3664,3.37,3.3627,3.3678,3.3572,3.3637,3.3599,3.356,3.357,3.3572,3.3661,3.3694,3.3742,3.3949,3.397,0,0,0,3.3749,3.3776,3.378,3.3783,3.3757,3.3737,3.3685,3.3671,3.3677,3.3573,3.369,3.3708,3.3735,3.3759,3.3777,3.3798,3.3583,3.3583,3.3582,3.396,3.3908,3.3966,3.3909,3.3913,3.3859,3.3858,3.383,3.3775,3.3804,3.3806,3.3938,3.3968,3.3981,3.4003,3.383,3.383,3.3831,3.3831,3.4114,3.4145,3.4072,3.4102,3.4047,3.4071,3.4022,3.3983,3.3998,3.3931,3.3952,3.3885,3.4005,3.4022,3.3837,3.3836,3.3835,3.3835,3.3834,3.4247,3.4253,3.4235,3.4235,3.4241,3.4181,3.42,3.4148,3.41,3.4121,3.4118,3.4117,3.4109,3.4123,3.4124,3.4124,3.4124,3.4125,3.4125,3.4392,3.4369,3.4391,3.437,3.4366,3.4354,3.4302,3.4296,3.4277,3.4238,3.4237,3.4181,3.4027,3.399,3.4132,3.4131,3.413,3.4129,3.4129,3.4569,3.4521,3.4555,3.4551,3.4522,3.4533,3.4467,3.4461,3.4449,3.446,3.4399,3.4293,3.4263,3.4248,3.4217,3.4409,3.4409,3.4409,3.4409,3.4681,3.4661,3.4685,3.4683,3.4674,3.4619,3.466,3.4621,3.4573,3.4563,3.4527,3.4481,3.4469,3.4446,3.4427,3.4397,3.4631,3.4631,3.4631,3.4787,3.4764,3.4809,3.4761,3.4735,3.4715,3.4752,3.4753,3.4688,3.4639,3.4553,3.4544,3.4469,3.4448,3.4397,3.4369,3.4313,0,0]},{"header":{"parameterUnit":"m.s-1","parameterCategory":1,"la1":30.2992,"la2":30.254,"lo1":-89.0895,"lo2":-89.0443,"dy":0.0025,"dx":0.0025,"nx":19,"ny":19,"refTime":"2026-04-25T03:00:00:Z","depth":0,"parameterNumber":3,"parameterNumberName":"V-component_of_WINDS"},"data":[0,0,0,5.2799,5.2798,5.2781,5.2781,5.2756,5.2756,0,0,0,0,0,0,0,0,0,0,0,5.2804,5.2804,5.2799,5.2798,5.2781,5.2781,5.2756,5.2756,0,0,0,0,0,0,0,0,0,0,0,5.2804,5.2804,5.2804,5.2798,5.2781,5.2781,5.2756,5.277,0,0,0,0,0,0,0,0,0,0,5.2787,5.2793,5.2804,5.2804,5.2798,5.2781,5.2781,5.2771,5.2769,5.2764,0,5.2761,0,5.2758,5.2755,5.2754,0,0,0,5.2797,5.2794,5.2789,5.2804,5.2798,5.2781,5.2788,5.277,5.2768,5.2762,5.276,5.2759,5.2758,5.2754,5.2754,5.273,5.273,0,0,5.2798,5.28,5.279,5.2788,5.2793,5.2789,5.2788,5.2769,5.2767,5.276,5.2759,5.2757,5.2754,5.2754,5.273,5.273,0,0,0,5.2802,5.2801,5.2797,5.2789,5.2786,5.2789,5.2787,5.2767,5.2766,5.2759,5.2757,5.2754,5.2754,5.2731,5.273,5.2729,0,0,0,5.2802,5.2803,5.2797,5.2798,5.2787,5.2777,5.2786,5.2767,5.2765,5.2757,5.2754,5.2754,5.2731,5.273,5.273,5.2728,0,0,0,5.2805,5.2803,5.2801,5.2799,5.2792,5.2777,5.2775,5.2767,5.2764,5.2754,5.2753,5.2731,5.273,5.273,5.2728,5.2723,0,0,0,5.2808,5.2799,5.2801,5.2791,5.2792,5.2777,5.2775,5.2763,5.2755,5.2754,5.2731,5.273,5.273,5.2728,5.2723,5.2718,5.2717,0,0,5.2798,5.2798,5.2792,5.2793,5.2779,5.278,5.2765,5.2754,5.275,5.2737,5.2736,5.2729,5.2728,5.2723,5.2707,5.2706,0,0,0,5.2789,5.2785,5.2781,5.2774,5.2767,5.276,5.2752,5.2748,5.2737,5.2745,5.2726,5.2725,5.2722,5.2719,5.2718,5.2715,5.273,5.273,5.273,5.2777,5.2775,5.2764,5.276,5.2753,5.2745,5.2739,5.2732,5.273,5.2726,5.2722,5.2713,5.271,5.2709,5.2706,5.2719,5.2719,5.2719,5.2719,5.2762,5.2756,5.2755,5.2745,5.2741,5.2732,5.2724,5.2723,5.2713,5.2715,5.2712,5.2715,5.2708,5.2705,5.2719,5.2719,5.2719,5.2719,5.2719,5.2754,5.275,5.2747,5.2738,5.273,5.2725,5.2716,5.2713,5.271,5.2707,5.2702,5.2702,5.2701,5.2705,5.2705,5.2705,5.2705,5.2705,5.2705,5.2747,5.2743,5.2737,5.273,5.2725,5.2719,5.2711,5.2706,5.27,5.2698,5.2698,5.2696,5.2708,5.2711,5.2704,5.2704,5.2704,5.2705,5.2705,5.2732,5.2735,5.2725,5.2721,5.2712,5.2705,5.2702,5.2692,5.2687,5.2683,5.2682,5.2692,5.2691,5.2692,5.2694,5.2683,5.2683,5.2683,5.2683,5.2725,5.2725,5.2715,5.2708,5.2701,5.2698,5.2686,5.268,5.2674,5.2671,5.2672,5.2675,5.2676,5.2674,5.2676,5.2678,5.2663,5.2663,5.2663,5.2716,5.2715,5.2706,5.2702,5.2695,5.2689,5.2678,5.2669,5.2663,5.2662,5.2668,5.2669,5.2674,5.2676,5.2674,5.2676,5.268,0,0]}]]